Meteo orario Gola Gokarannath

Oggi, 19 Aprile, Lunedi

Tempo Temperatura Precipitazioni Vento Pressione Umidità
00:00 +29°C° 0 mm 4 m/s 741 mm Hg 23%
01:00 +28°C° 0 mm 4 m/s 741 mm Hg 25%
02:00 +28°C° 0 mm 3 m/s 740 mm Hg 27%
03:00 +27°C° 0 mm 3 m/s 740 mm Hg 29%
04:00 +26°C° 0 mm 3 m/s 740 mm Hg 30%
05:00 +25°C° 0 mm 3 m/s 740 mm Hg 32%
06:00 +28°C° 0 mm 3 m/s 740 mm Hg 28%
07:00 +30°C° 0 mm 4 m/s 741 mm Hg 23%
08:00 +34°C° 0 mm 4 m/s 741 mm Hg 19%
09:00 +36°C° 0 mm 5 m/s 741 mm Hg 15%
10:00 +39°C° 0 mm 6 m/s 741 mm Hg 12%
11:00 +43°C° 0 mm 7 m/s 741 mm Hg 8%
12:00 +43°C° 0 mm 8 m/s 740 mm Hg 7%
13:00 +44°C° 0 mm 9 m/s 739 mm Hg 6%
14:00 +45°C° 0 mm 9 m/s 738 mm Hg 6%
15:00 +44°C° 0 mm 8 m/s 738 mm Hg 6%
16:00 +44°C° 0 mm 8 m/s 737 mm Hg 7%
17:00 +43°C° 0 mm 7 m/s 737 mm Hg 7%
18:00 +40°C° 0 mm 6 m/s 737 mm Hg 8%
19:00 +37°C° 0 mm 5 m/s 738 mm Hg 10%
20:00 +34°C° 0 mm 4 m/s 738 mm Hg 11%
21:00 +34°C° 0 mm 4 m/s 738 mm Hg 12%
22:00 +33°C° 0 mm 4 m/s 738 mm Hg 13%
23:00 +31°C° 0 mm 3 m/s 738 mm Hg 13%

Domani, 20 Aprile, Martedi

Tempo Temperatura Precipitazioni Vento Pressione Umidità
00:00 +30°C° 0 mm 3 m/s 738 mm Hg 14%
01:00 +30°C° 0 mm 3 m/s 738 mm Hg 14%
02:00 +29°C° 0 mm 3 m/s 737 mm Hg 15%
03:00 +28°C° 0 mm 3 m/s 738 mm Hg 15%
04:00 +28°C° 0 mm 2 m/s 738 mm Hg 15%
05:00 +27°C° 0 mm 2 m/s 738 mm Hg 16%
06:00 +30°C° 0 mm 2 m/s 739 mm Hg 14%
07:00 +32°C° 0 mm 2 m/s 739 mm Hg 12%
08:00 +36°C° 0 mm 2 m/s 740 mm Hg 10%
09:00 +38°C° 0 mm 3 m/s 740 mm Hg 9%
10:00 +42°C° 0 mm 3 m/s 739 mm Hg 7%
11:00 +44°C° 0 mm 4 m/s 739 mm Hg 6%
12:00 +44°C° 0 mm 4 m/s 739 mm Hg 6%
13:00 +45°C° 0 mm 4 m/s 738 mm Hg 6%
14:00 +46°C° 0 mm 5 m/s 737 mm Hg 6%
15:00 +44°C° 0 mm 4 m/s 737 mm Hg 6%
16:00 +44°C° 0 mm 4 m/s 737 mm Hg 7%
17:00 +43°C° 0 mm 4 m/s 737 mm Hg 7%
18:00 +40°C° 0 mm 3 m/s 737 mm Hg 8%
19:00 +38°C° 0 mm 3 m/s 738 mm Hg 9%
20:00 +36°C° 0 mm 2 m/s 738 mm Hg 11%
21:00 +35°C° 0 mm 2 m/s 738 mm Hg 11%
22:00 +34°C° 0 mm 2 m/s 738 mm Hg 12%
23:00 +34°C° 0 mm 2 m/s 738 mm Hg 13%

Dopodomani, 21 Aprile, Mercoledi

Tempo Temperatura Precipitazioni Vento Pressione Umidità
00:00 +32°C° 0 mm 2 m/s 738 mm Hg 13%
01:00 +31°C° 0 mm 2 m/s 738 mm Hg 14%
02:00 +31°C° 0 mm 2 m/s 737 mm Hg 14%
03:00 +31°C° 0 mm 3 m/s 738 mm Hg 15%
04:00 +32°C° 0 mm 4 m/s 738 mm Hg 16%
05:00 +32°C° 0 mm 5 m/s 739 mm Hg 18%
06:00 +33°C° 0.1 mm 4 m/s 740 mm Hg 18%
07:00 +33°C° 0.1 mm 3 m/s 741 mm Hg 18%
08:00 +34°C° 0.1 mm 2 m/s 741 mm Hg 18%
09:00 +36°C° 0.2 mm 2 m/s 741 mm Hg 16%
10:00 +38°C° 0.2 mm 2 m/s 741 mm Hg 14%
11:00 +40°C° 0.2 mm 2 m/s 741 mm Hg 12%
12:00 +40°C° 0 mm 2 m/s 741 mm Hg 11%
13:00 +41°C° 0 mm 2 m/s 740 mm Hg 10%
14:00 +42°C° 0 mm 2 m/s 739 mm Hg 10%
15:00 +43°C° 0 mm 3 m/s 739 mm Hg 10%
16:00 +42°C° 0 mm 4 m/s 739 mm Hg 10%
17:00 +41°C° 0 mm 5 m/s 738 mm Hg 10%
18:00 +39°C° 0 mm 5 m/s 739 mm Hg 13%
19:00 +36°C° 0 mm 5 m/s 740 mm Hg 15%
20:00 +34°C° 0 mm 5 m/s 740 mm Hg 18%
21:00 +33°C° 0 mm 5 m/s 741 mm Hg 21%
22:00 +30°C° 0 mm 5 m/s 741 mm Hg 24%
23:00 +29°C° 0 mm 5 m/s 741 mm Hg 28%

22 Aprile, Giovedi

Tempo Temperatura Precipitazioni Vento Pressione Umidità
00:00 +28°C° 0 mm 4 m/s 741 mm Hg 30%
01:00 +28°C° 0 mm 3 m/s 741 mm Hg 33%
02:00 +27°C° 0 mm 2 m/s 741 mm Hg 36%
03:00 +26°C° 0 mm 2 m/s 741 mm Hg 37%
04:00 +26°C° 0 mm 2 m/s 741 mm Hg 39%
05:00 +25°C° 0 mm 2 m/s 741 mm Hg 40%
06:00 +28°C° 0 mm 2 m/s 742 mm Hg 34%
07:00 +31°C° 0 mm 2 m/s 742 mm Hg 28%
08:00 +34°C° 0 mm 2 m/s 743 mm Hg 23%
09:00 +36°C° 0 mm 2 m/s 742 mm Hg 18%
10:00 +39°C° 0 mm 3 m/s 742 mm Hg 14%
11:00 +42°C° 0 mm 4 m/s 742 mm Hg 10%
12:00 +42°C° 0 mm 5 m/s 741 mm Hg 9%
13:00 +44°C° 0 mm 6 m/s 741 mm Hg 9%
14:00 +44°C° 0 mm 7 m/s 740 mm Hg 9%
15:00 +43°C° 0 mm 7 m/s 740 mm Hg 9%
16:00 +43°C° 0 mm 7 m/s 739 mm Hg 9%
17:00 +41°C° 0 mm 7 m/s 739 mm Hg 9%
18:00 +39°C° 0 mm 5 m/s 740 mm Hg 10%
19:00 +36°C° 0 mm 4 m/s 740 mm Hg 12%
20:00 +33°C° 0 mm 3 m/s 741 mm Hg 13%
21:00 +33°C° 0 mm 3 m/s 741 mm Hg 15%
22:00 +31°C° 0 mm 3 m/s 741 mm Hg 16%
23:00 +30°C° 0 mm 3 m/s 741 mm Hg 17%

23 Aprile, Venerdi

Tempo Temperatura Precipitazioni Vento Pressione Umidità
00:00 +29°C° 0 mm 3 m/s 741 mm Hg 19%
01:00 +28°C° 0 mm 3 m/s 740 mm Hg 21%
02:00 +28°C° 0 mm 3 m/s 740 mm Hg 23%
03:00 +27°C° 0 mm 2 m/s 740 mm Hg 23%
04:00 +27°C° 0 mm 2 m/s 740 mm Hg 24%
05:00 +26°C° 0 mm 2 m/s 740 mm Hg 24%
06:00 +29°C° 0 mm 2 m/s 741 mm Hg 21%
07:00 +32°C° 0 mm 2 m/s 741 mm Hg 18%
08:00 +35°C° 0 mm 2 m/s 742 mm Hg 15%
09:00 +37°C° 0 mm 3 m/s 741 mm Hg 13%
10:00 +41°C° 0 mm 4 m/s 741 mm Hg 11%
11:00 +43°C° 0 mm 5 m/s 741 mm Hg 9%
12:00 +43°C° 0 mm 5 m/s 740 mm Hg 8%
13:00 +45°C° 0 mm 6 m/s 739 mm Hg 7%
14:00 +46°C° 0 mm 7 m/s 738 mm Hg 6%
15:00 +45°C° 0 mm 7 m/s 738 mm Hg 6%
16:00 +45°C° 0 mm 6 m/s 738 mm Hg 6%
17:00 +44°C° 0 mm 6 m/s 738 mm Hg 7%
18:00 +41°C° 0 mm 7 m/s 738 mm Hg 10%
19:00 +39°C° 0 mm 8 m/s 739 mm Hg 14%
20:00 +36°C° 0 mm 10 m/s 740 mm Hg 17%
21:00 +34°C° 0 mm 7 m/s 740 mm Hg 18%
22:00 +33°C° 0 mm 5 m/s 740 mm Hg 18%
23:00 +31°C° 0 mm 3 m/s 740 mm Hg 19%

24 Aprile, Sabato

Tempo Temperatura Precipitazioni Vento Pressione Umidità
00:00 +31°C° 0 mm 2 m/s 740 mm Hg 19%
01:00 +30°C° 0 mm 2 m/s 739 mm Hg 19%
02:00 +29°C° 0 mm 1 m/s 739 mm Hg 20%
03:00 +29°C° 0 mm 2 m/s 739 mm Hg 21%
04:00 +28°C° 0 mm 2 m/s 739 mm Hg 22%
05:00 +28°C° 0 mm 2 m/s 740 mm Hg 24%
06:00 +30°C° 0 mm 3 m/s 740 mm Hg 20%
07:00 +34°C° 0 mm 3 m/s 741 mm Hg 17%
08:00 +37°C° 0 mm 3 m/s 741 mm Hg 14%
09:00 +39°C° 0 mm 3 m/s 741 mm Hg 12%
10:00 +42°C° 0 mm 4 m/s 741 mm Hg 10%
11:00 +45°C° 0 mm 4 m/s 741 mm Hg 8%
12:00 +46°C° 0 mm 5 m/s 740 mm Hg 8%
13:00 +47°C° 0 mm 6 m/s 739 mm Hg 7%
14:00 +47°C° 0 mm 7 m/s 738 mm Hg 6%
15:00 +47°C° 0 mm 7 m/s 738 mm Hg 6%
16:00 +46°C° 0 mm 7 m/s 738 mm Hg 6%
17:00 +46°C° 0 mm 7 m/s 738 mm Hg 6%
18:00 +42°C° 0 mm 5 m/s 738 mm Hg 7%
19:00 +40°C° 0 mm 4 m/s 738 mm Hg 8%
20:00 +36°C° 0 mm 3 m/s 739 mm Hg 9%
21:00 +35°C° 0 mm 3 m/s 739 mm Hg 10%
22:00 +34°C° 0 mm 3 m/s 739 mm Hg 10%
23:00 +33°C° 0 mm 3 m/s 739 mm Hg 11%
Mostrare altro

Abbiamo bisogno del tuo consenso

Meteoprog e i nostri fornitori di servizi possono memorizzare e accedere a dati personali come cookie, identificatori di dispositivi o altre tecnologie simili sul tuo dispositivo e possono elaborare tali dati per personalizzare i contenuti e gli annunci, nonché fornire funzionalità dei social media e analizzarne il traffico.

  • Archiviare e/o accedere alle informazioni sul tuo dispositivo

    Cookie, identificatori di dispositivi o altre informazioni possono essere memorizzati o resi accessibili sul tuo dispositivo per le finalità sopra indicate.

  • Annunci e contenuti personalizzati, misurazione di annunci e contenuti, approfondimenti sul pubblico e sviluppo di prodotti

    Gli annunci e i contenuti possono essere personalizzati in base a un profilo. È possibile aggiungere più dati per personalizzare meglio annunci e contenuti. È possibile misurare il rendimento degli annunci e dei contenuti. È possibile ricavare informazioni sul pubblico che ha visto gli annunci e i contenuti. Tali dati possono essere utilizzati per sviluppare o migliorare l'esperienza, i sistemi e il software dell'utente.

Cliccando su “Accetto”, acconsenti all'uso di cookie, identificatori di dispositivo, web beacon o altre tecnologie simili. Puoi modificare le impostazioni nel browser del tuo dispositivo.

Per determinati scopi, è possibile fare affidamento su interessi legali, piuttosto che sul consenso. Puoi approfondire questo argomento consultando la nostra Informativa sulla privacy e sui cookie.